Overview Statistics Trail Chart Weather Telemetry Raw packets
 

This is the latest recevied weather packets stored in our database for station/object KGRR-WX. If no packets are shown the sender has not sent any weather packets the latest 10 day(s).

<< 6 7 8 9 10 11 12 >>
Time Temp. Humidity Pressure Rain* Wind** Luminosity Snow
1788463805 26.67° C 60% 986.8 hPa 0 mm - - -
1788462905 27.78° C 60% 986.8 hPa 0.25 mm - - -
1788462007 28.89° C 60% 986.8 hPa 0.25 mm - - -
1788461106 27.78° C 57% 986.2 hPa 0 mm - - -
1788460205 28.33° C 60% 986.2 hPa 0 mm - - -
1788459305 28.89° C 60% 986.2 hPa 0 mm - - -
1788458406 30° C 60% 986.2 hPa 0 mm - - -
1788457506 30.56° C 58% 984.8 hPa 0 mm - - -
1788456605 31.11° C 60% 985.8 hPa 0 mm - - -
1788455705 31.11° C 60% 985.8 hPa 0 mm - - -
1788454806 30.56° C 60% 985.8 hPa 0 mm - - -
1788453906 30.56° C 77% 985.6 hPa 0 mm - - -
1788453006 29.44° C 72% 985.5 hPa 0 mm - - -
1788452105 28.89° C 72% 985.5 hPa 0 mm - - -
1788451206 28.89° C 72% 985.5 hPa 0 mm - - -
1788450305 28.89° C 78% 984.9 hPa 0 mm - - -
1788449405 28.89° C 70% 985.8 hPa 0 mm - - -
1788448505 28.89° C 70% 985.9 hPa 0 mm - - -
1788447606 28.89° C 70% 985.9 hPa 0 mm - - -
1788446705 28.33° C 81% 986 hPa 0 mm - - -
1788445805 27.78° C 80% 986.1 hPa 0 mm - - -
1788444906 26.67° C 80% 986.1 hPa 0 mm - - -
1788444005 26.11° C 83% 986.3 hPa 0 mm - - -
1788443105 25.56° C 87% 985.4 hPa 0 mm - - -
1788442206 25° C 87% 985.4 hPa 0 mm - - -

* Rain latest hour (hover to see other rain measurements)
** Current wind speed in m/s (hover to see current wind gust speed)